CAPE
753 181 461 520 721 662 387 131 527 719 348 280 234 431 30 1037 533 1082 1361 1134 1310 996 908 718 584 479 968 608 782 580 621 465 733 453 418 472 1081 614 866 955 1222 1475 1767 1656 1652 1689 1846 1999 2140 2349 2399 2334 2412 2458 2545 2624 2850 3086 2900 2990 3310 3300 3328 3371 3390 3386 3235 3234 3338 3358 3377 3215 3227 3135 3168 3172 3052 2940 2772 2872 2589 2475 2631 2420 2596 2442 2625 2535 2522 2484 2495 2539 2366 2314 2237 2281 2207
843 682 486 649 917 719 832 623 702 658 863 137 95 566 681 764 956 667 902 1183 1092 1143 706 636 518 686 229 364 170 270 495 529 454 595 667 801 967 841 912 1069 1246 1518 1608 1610 1814 1664 1560 1926 2336 2314 2465 2353 2441 2432 2556 2660 2800 2952 2917 3074 3252 3330 3390 3520 3449 3349 3343 3384 3438 3379 3326 3204 3088 3026 3170 3130 3156 3151 3076 2954 2673 2427 2534 2456 2325 2155 2469 2435 2478 2432 2464 2510 2523 2367 2421 2245 2430
662 550 876 1029 867 968 968 719 1274 747 376 282 131 398 572 763 688 624 765 1129 1204 874 678 750 716 449 342 117 155 828 498 460 536 371 641 968 629 1339 1302 1133 1222 1489 1759 1850 1730 1898 2104 2223 2332 2252 2544 2636 2618 2341 2472 2683 2923 2934 2978 3109 3319 3412 3549 3502 3439 3282 3297 3407 3385 3387 3270 3154 3100 3103 3190 3195 3120 3122 2935 2776 2757 2336 2729 2545 2382 2369 2476 2325 2260 2373 2330 2328 2389 2317 2286 2336 2315
647 745 1064 1111 1592 1290 1659 1365 816 668 286 421 362 297 564 612 684 717 925 1091 1142 884 845 715 1008 582 467 407 501 397 484 669 525 544 660 532 888 486 1228 1199 1513 1718 1911 1875 1841 1979 1865 2032 2293 2318 2569 2662 2631 2585 2649 2850 2952 2898 2928 3083 3374 3553 3560 3426 3436 3397 3353 3355 3354 3338 3202 3029 3138 3251 3242 3083 3050 3004 2907 2960 2712 2826 2643 2383 2411 2531 2559 2651 2451 2279 2510 2487 2417 2210 2255 2192 2363
740 850 933 1295 1929 1315 1223 1236 1061 850 484 454 410 405 489 786 828 964 924 1202 932 967 851 903 872 868 964 936 652 593 776 340 462 576 379 692 837 1118 1378 1418 1547 1582 1640 1830 2010 1864 1830 1756 2265 2471 2624 2658 2624 2671 2662 2909 2869 2903 3053 3304 3524 3544 3420 3449 3437 3339 3345 3335 3359 3253 3213 3175 3264 3082 3004 2955 2847 2756 2734 2828 2946 2625 2174 2653 2550 2285 2442 2356 2167 2377 2486 2462 2477 2290 2450 2522 2449
842 826 1082 1448 1490 1399 1080 821 1336 526 193 638 510 367 574 812 1011 971 995 1273 1190 997 987 922 1065 688 1098 1150 957 1051 698 610 415 605 725 944 1080 1269 1313 1453 1451 1525 1651 1922 2020 2057 1709 1750 2256 2608 2684 2756 2774 2780 2756 2722 2892 3092 3289 3416 3509 3444 3479 3518 3381 3351 3324 3318 3271 3188 3244 3241 3146 2918 2830 2874 2699 2697 2793 2565 2736 2977 2656 2731 2618 2492 2544 2477 2530 2421 2543 2438 2487 2336 2566 2490 2569
880 1210 1316 1333 1260 1210 1547 747 149 289 160 392 452 678 794 783 814 952 1097 1321 1278 1329 1022 1100 934 697 891 749 566 596 611 363 354 401 878 874 1091 1348 1335 1354 1449 1658 1734 1954 1979 1869 1768 1973 2460 2491 2751 2788 2690 2587 2634 2803 3057 3266 3345 3368 3436 3493 3512 3379 3401 3385 3295 3255 3128 3148 3221 3242 3178 3083 2944 2782 2685 2792 2786 2644 2506 2465 2572 2401 2650 2510 2525 2447 2437 2541 2464 2659 2607 2410 2238 2069 2439
937 1425 1331 1471 1164 1016 1476 278 305 318 159 616 295 602 844 756 779 932 921 1131 1135 1405 1104 1117 792 885 1066 815 868 925 441 455 518 496 760 806 981 1371 1248 1236 1457 1619 1781 2012 2216 1874 2174 2359 2557 2431 2430 2435 2535 2551 2739 2970 3186 3365 3388 3341 3461 3480 3416 3332 3327 3261 3262 3180 3127 3250 3340 3266 3181 3043 2779 2773 2609 2447 2482 2353 2403 2492 2465 2303 2340 2414 2385 2394 2330 2422 2384 2584 2580 2514 2425 2471 2215
1397 1555 1377 1686 1600 984 582 207 114 132 238 398 432 712 785 876 904 834 998 1043 820 1259 1232 949 629 832 1038 1110 1209 959 706 468 509 719 700 780 1066 1210 1025 1044 1192 1520 1660 1804 2064 1700 2080 2594 2410 2584 2540 2560 2592 2751 2870 3005 3191 3345 3470 3337 3238 3441 3349 3293 3177 3080 3146 3136 3224 3204 3167 3129 2889 2873 2907 3011 2714 2505 2338 2311 2370 2306 2236 2224 2206 2182 2248 2376 2404 2272 2291 2570 2560 2496 2435 2393 2652
1529 1225 2144 1316 783 516 148 113 17 130 265 305 721 881 969 837 902 1044 747 832 1203 1100 1224 1139 728 807 844 899 844 923 803 534 679 757 713 784 1224 1214 1062 932 959 1283 1593 1805 1950 1686 1987 2716 2444 2596 2613 2722 2901 2940 2998 3160 3306 3325 3259 3081 3118 3297 3240 3271 3187 3154 3223 3092 3184 3085 3078 2911 2938 2867 2784 2699 2580 2379 2336 2235 2208 2271 2229 2336 2403 2355 2286 2245 2470 2536 2458 2385 2461 2535 2536 2490 2574
1693 1206 1211 1743 1148 471 33 84 24 88 142 286 614 717 886 922 882 932 912 978 942 1314 1056 1024 1114 992 1019 982 1286 772 459 354 447 575 345 863 1128 1199 1130 1112 1016 1259 1528 1787 1821 1975 2147 2280 2445 2447 2430 2586 2798 3002 3158 3128 3105 2995 3060 3110 3157 3226 3214 3192 3207 3213 3139 3120 3129 3095 3079 2988 3016 2972 2839 2771 2694 2562 2374 2279 2142 2189 2324 2379 2444 2439 2365 2509 2520 2562 2381 2455 2472 2518 2558 2502 2400
1536 1483 1740 1734 994 561 396 200 41 34 186 246 508 658 795 952 912 890 755 662 925 1198 1234 764 1292 1006 899 634 823 594 499 487 412 376 372 706 851 1175 1251 1236 1143 1166 1413 1544 1638 2102 2202 2374 2580 2152 2371 2554 2709 2787 2927 2911 2866 2950 3048 3129 3086 3139 3183 3087 3093 3136 3145 3079 3043 3105 2997 2993 2996 2932 2784 2676 2511 2362 2204 2132 2203 2354 2522 2618 2561 2485 2428 2647 2482 2370 2374 2470 2446 2557 2627 2614 2686
1722 1561 1613 998 1417 590 370 330 157 78 196 226 468 783 600 826 1018 939 868 803 821 969 1158 1151 795 1107 859 676 555 541 447 422 394 321 364 721 1003 1241 1202 1195 1319 1380 1369 1525 1705 1962 2082 2009 2230 2385 2378 2471 2626 2776 3003 2936 2895 2880 3018 3060 3110 3119 3087 3001 3020 3113 3129 3078 3051 3028 2974 2949 3013 2843 2712 2643 2468 2331 2185 2148 2401 2595 2610 2518 2557 2482 2564 2648 2478 2385 2385 2481 2508 2554 2591 2636 2583
1449 1824 1491 1417 764 504 526 248 167 353 298 262 560 626 840 924 902 1037 864 791 712 1151 1062 1120 924 990 975 839 788 548 606 417 359 317 421 628 937 1148 1250 1145 1336 1413 1498 1541 1721 1962 2274 1989 2341 2388 2480 2625 2596 2765 2963 2922 2927 2954 3020 3052 3138 3092 3025 3003 2924 3025 3130 3074 3169 3012 3012 3005 3039 2768 2695 2652 2586 2516 2510 2515 2842 2691 2460 2371 2402 2374 2448 2791 2600 2556 2491 2500 2502 2547 2632 2666 2656
1406 1579 1501 1269 889 413 268 452 311 147 312 403 529 752 712 958 1031 859 790 893 934 1061 1018 748 962 907 705 818 773 406 621 640 394 443 572 651 1092 1214 1181 1217 1286 1451 1409 1439 1736 1888 2040 2192 2582 2705 2921 2788 2575 2544 2664 2881 2926 2989 3012 3163 3174 3118 3105 2924 2863 2932 3140 3145 2978 3048 2899 2914 2926 2744 2722 2641 2550 2593 2609 2880 2747 2619 2475 2410 2337 2536 2580 2627 2691 2620 2713 2759 2760 2759 2670 2712 2660
1484 1222 1669 1438 1114 281 186 296 119 227 279 186 683 858 840 979 1040 843 855 815 1258 1088 765 1010 704 517 728 842 850 559 432 452 501 646 676 949 1240 1222 1317 1366 1308 1252 1396 1319 1640 2025 2142 2564 2555 2495 2930 3007 2866 2280 2547 2798 3037 2999 3015 3114 3246 3181 3064 2920 2874 2955 3044 3061 2898 2892 2872 2947 2921 2751 2900 2586 2642 2878 2906 2717 2502 2589 2634 2354 2410 2605 2650 2810 2620 2555 2622 2689 2755 2646 2492 2709 2788
1408 1357 1744 1588 944 322 184 53 263 22 178 368 514 885 816 1066 1071 1281 1000 1088 878 936 853 813 955 760 714 1224 838 600 530 512 716 551 832 1005 1099 1063 1035 1399 1366 1340 1293 1365 1684 1846 1958 2439 2684 2831 2986 3076 2802 2651 2524 2724 2873 3117 3160 3103 3292 3211 3124 2968 2938 2927 3021 3015 3031 3013 2940 2954 2953 2825 2818 3205 3049 3003 3156 2567 2606 2699 2692 2662 2505 2602 2625 2738 2720 2648 2740 2590 2711 2827 2804 2866 2966
1375 1370 1250 867 712 454 276 358 172 24 215 313 610 784 808 1126 1185 1514 1182 942 1020 852 1027 854 749 760 811 1020 908 666 589 799 794 835 928 1047 1104 1026 1060 1256 1295 1177 1232 1415 1582 1821 1990 2424 3146 3134 3048 3427 3122 2937 3093 2815 3039 3138 2786 3079 3245 3321 3225 2998 3108 3091 2999 3212 2834 2941 3145 3102 3084 3405 3753 2312 3976 3180 3227 2942 2816 2639 2436 2664 2660 2788 3034 2861 2874 2961 2841 2545 2675 2902 2840 2785 2884
1475 1168 902 689 678 834 369 398 301 239 134 230 353 696 520 969 1050 1366 1164 1148 1270 1131 1271 1132 1137 1385 1325 983 891 754 631 633 808 682 893 927 1043 971 920 1247 1375 1131 1239 1174 1560 1608 1825 1968 2838 3051 2882 3225 3299 3212 3340 3130 2816 2807 3026 2953 2682 2843 3144 3172 3697 3240 3326 3634 3034 3214 3257 2545 2229 2499 3428 3096 3194 2410 2666 2757 2676 2731 2648 2714 2850 2894 3188 3000 3138 3083 3044 3020 2900 2925 2738 2848 3136
1368 1082 971 374 349 697 422 353 366 297 174 200 377 536 632 857 1083 1177 903 1383 1317 1279 1564 1261 1473 1557 1445 1306 1108 1072 1003 715 644 828 645 985 1012 972 667 940 1255 1294 1118 1353 1398 1664 1707 1752 2595 2441 2968 3078 3344 3187 3067 2943 2857 2646 3015 3036 2982 2948 3606 3316 4223 3661 3684 3803 3663 3459 2657 2302 2401 2470 2654 2726 2878 3166 2962 2644 2537 2762 2883 2866 2312 3101 3060 3163 2844 3381 3267 3388 2800 2901 2628 2370 2406
1208 995 566 692 567 462 376 406 386 361 274 155 223 384 463 751 1140 1210 834 1262 1378 1193 1343 1372 1598 1598 1586 1361 1194 1181 990 768 647 603 572 820 578 580 562 989 900 1250 1343 1329 1456 1703 1630 1718 2011 2306 2738 2888 3208 2847 2462 2204 2752 2167 2866 2983 2976 2943 3216 3239 3458 3774 3766 3469 3605 3091 2401 2140 2216 2145 2152 2585 3122 3111 3090 3187 2664 3069 2834 3384 2432 3331 3122 3370 3096 2845 2962 3044 2579 2627 2576 2680 2776
1234 1005 537 426 452 378 408 362 347 377 208 61 151 351 494 740 1051 1225 969 720 646 791 1044 1365 1518 1707 1500 1404 1320 1204 1007 703 798 790 801 797 573 762 846 917 734 714 1218 1313 1507 1680 1802 1794 1844 2089 2220 2496 2516 2043 2058 1998 2123 2154 2709 2932 2932 2933 3175 3322 3320 3446 3366 3408 2900 2391 2233 2198 2202 2335 2459 3005 3084 3272 3003 2938 2723 2714 2944 2977 3022 3220 3197 3169 3219 3080 3050 2784 2642 2511 2537 2638 2826
545 808 814 624 845 895 697 804 654 334 350 211 134 368 374 698 735 946 968 794 492 438 770 1281 1447 1708 1582 1418 1291 1280 974 1044 773 677 702 606 858 542 672 928 811 853 1172 1459 1475 1706 1772 1822 2098 1927 1829 1866 1842 1980 1839 1920 2003 1996 2520 2811 2941 2932 3158 3242 3098 3108 2702 2615 2326 2324 2095 2124 2168 2258 2444 2648 2944 2682 2673 2890 2812 2766 2744 2874 2885 3150 3100 3208 3061 2790 2930 2976 2885 2617 2587 2989 3058
496 181 242 408 385 596 661 861 806 808 659 318 155 118 325 758 589 755 787 858 717 1007 993 1190 1673 1766 1605 1454 1343 1224 1241 1170 1009 774 659 695 738 903 696 910 992 885 974 1374 1560 1696 1816 1823 2082 2190 2141 2215 2255 2080 1836 1837 1934 1733 2046 2102 2768 2855 2944 3063 3010 2719 2642 2266 2422 2332 2311 2314 2194 2194 2509 2872 3002 2867 2857 2994 3027 2791 2659 2894 3121 2915 3062 3150 3078 3083 2983 3065 2796 2894 2720 2924 2853
506 317 143 233 307 287 431 521 568 456 218 155 127 102 229 551 501 442 808 439 934 1206 1306 1542 2000 1774 1669 1523 1395 1355 1352 1256 1144 1042 1068 959 1053 1050 1060 1076 948 998 1079 1088 1503 1713 1907 1954 2041 2135 2094 2381 2273 2098 1830 1767 1770 1664 1804 2091 2311 2738 2710 2668 2806 2554 2460 2177 2280 2353 2309 2345 2285 2361 2530 2741 2979 2982 3052 2977 2920 2846 2738 2806 2760 2552 2435 2773 2803 3080 3147 3151 2935 3113 2871 3055 2910
231 268 269 259 146 80 57 44 24 12 15 78 102 84 103 214 445 369 608 676 1078 1449 1800 1947 1976 1885 1732 1550 1365 1457 1398 1313 1278 1187 1230 1193 1201 1180 1206 1206 1036 1050 1025 1104 1141 1386 1926 2032 1956 2066 2066 2213 2254 1945 1808 1748 1798 1853 1826 1854 2149 2418 2513 2325 2520 2522 2266 2247 2024 2296 2173 2353 2282 2305 2480 2845 2763 2971 3034 3003 2927 2745 3037 2968 2660 2513 2546 2542 2566 2817 2824 2968 3122 2945 2999 2712 2085
1 97 70 45 25 11 0 0 0 0 4 12 22 13 21 72 225 451 528 822 1428 1802 1990 2066 1972 1914 1724 1578 1377 1462 1512 1430 1285 1241 1239 1239 1291 1251 1142 1124 1167 1142 1160 1185 1095 1271 1632 2005 2022 2031 1888 1888 1999 1830 1830 1809 1883 1884 1914 1829 2095 2341 2299 2296 2302 2134 2078 1961 2048 2358 2453 2454 2288 2299 2714 2855 2806 3037 3094 3039 2952 3048 2895 2882 3075 2728 2711 2766 2439 2485 3022 2911 3109 3324 2774 1992 1593
0 0 0 0 0 0 0 1 0 0 0 0 0 4 0 0 276 305 232 946 1706 1942 2088 2118 1996 1912 1818 1687 1564 1618 1596 1518 1519 1439 1358 1361 1346 1327 1358 1273 1159 1214 1102 1134 1245 1273 1481 1909 2076 1964 1873 2000 1945 1832 1874 1870 1939 1993 1994 1773 2048 2274 2377 2213 2063 1961 1988 1972 1915 2488 2659 2404 2261 2548 2714 3087 2950 3096 3088 3210 3234 3085 2971 3250 3216 2990 2950 2826 2621 2700 3218 3455 3526 3348 2120 1048 903
0 0 0 0 0 0 0 0 0 0 0 0 0 0 0 0 353 541 337 1629 1637 1811 2157 2101 2095 1966 1971 1822 1711 1851 1740 1662 1559 1496 1469 1508 1514 1404 1395 1336 1340 1276 1181 1022 1197 1283 1250 1416 1992 1979 1874 1953 2050 1863 1876 1878 1960 1898 1972 1835 1935 1950 2264 2162 2108 2137 2012 2105 2390 2575 2497 2646 2651 2382 2728 2851 2689 2751 3020 3359 3310 3322 3168 3143 3194 3672 3528 3036 2798 2720 2779 2871 3106 2280 920 592 607
0 0 0 0 0 0 0 0 0 0 0 0 0 0 0 13 404 272 558 1783 1597 1824 2130 2079 2139 2068 2013 1943 1898 2057 1872 1801 1665 1619 1546 1527 1509 1388 1431 1360 1358 1360 1372 1361 1283 1296 1212 1269 1122 1746 1891 1906 1957 1861 1794 1803 1778 1797 1810 1838 1944 2041 2021 1971 2053 2055 1977 2109 2191 2521 2493 2665 2668 2503 2922 3062 2869 2811 3004 3166 3168 3211 3280 3471 3546 3863 3151 2837 2789 2957 2811 2890 1688 976 655 548 408
0 0 0 0 0 0 0 0 0 0 0 0 0 0 0 0 394 224 1143 1656 1522 1866 2021 1990 2139 2130 2199 2076 2122 2163 1898 1927 1782 1719 1634 1533 1558 1511 1467 1547 1297 1403 1542 1482 1328 1350 1173 1188 911 904 1490 1340 1819 1739 1812 1830 1764 1690 1849 1901 1936 2133 2188 1844 1854 1869 1907 2033 2116 2315 2615 2789 2828 2726 2980 3332 3239 2791 2712 3029 3116 3097 3258 3511 3582 3545 3234 2877 2644 2548 2840 2712 1661 704 533 569 446
0 0 0 0 0 0 0 0 0 0 0 0 0 0 0 0 346 533 1516 1460 1427 1714 1945 2018 2170 2181 2229 2197 2203 2091 1933 1878 1720 1689 1483 1493 1265 989 1486 1525 1459 1512 1584 1582 1444 1353 1347 1332 1393 1280 1165 1685 1660 1937 1815 1807 1701 1665 1716 1925 1990 2067 1998 1859 1670 1783 1773 1906 2030 2229 2885 2834 2737 2766 2862 3167 3067 2920 2596 2382 2469 2826 3869 3418 3622 3783 3505 2922 2934 2833 3170 1809 1038 626 160 226 313
0 0 0 0 0 0 0 0 0 0 0 0 0 0 1 0 254 1055 1361 1372 1339 1473 1833 2093 2211 2226 2324 2266 2159 2053 1967 1915 1757 1706 1705 1574 1435 1370 1358 1388 1254 1364 1592 1616 1525 1491 1389 1369 1484 1285 1286 1295 1538 1748 1874 1766 1797 1708 1673 1741 1788 1804 1757 1635 1653 1757 1780 1774 2032 1876 2580 2662 2678 2682 2788 2833 2789 2494 2562 2374 2254 2704 3655 3295 3862 3897 3292 3026 3350 2746 3046 1628 1022 846 42 63 52
0 0 0 0 0 0 0 0 0 0 0 0 0 0 0 98 490 912 1195 1210 1342 1325 1788 2079 2327 2253 2391 2297 2145 2119 2096 1978 1931 1910 1700 1526 1461 1174 963 1102 1120 1312 1456 1429 1670 1645 1509 1430 1654 1406 1344 1141 1550 1809 1801 1668 1712 1709 1752 1537 1647 1648 1826 1639 1670 1650 1797 1850 2075 1828 2306 2756 2614 2785 2759 2678 2634 2360 2391 2511 2060 2530 3111 3632 3821 3815 3466 3205 3338 3178 2840 1577 972 592 78 8 14
0 0 0 0 0 0 0 0 0 0 0 0 0 0 1 2 164 819 996 1023 1274 1261 1634 1998 2284 2324 2472 2302 2186 2186 2098 2046 2008 1955 1752 1611 1231 1240 964 1095 1328 991 1157 1125 1692 1719 1713 1508 1585 1543 1351 1366 1296 1606 1761 1722 1635 1791 1580 1668 1609 1704 1762 1645 1816 1857 1935 1967 1742 1806 2462 2648 2501 2825 2732 2794 2760 2352 2268 2430 2315 2458 2662 3582 3974 3533 3430 3620 3048 2837 2041 1730 1327 590 292 62 5
0 0 0 0 0 0 0 0 0 0 0 0 0 0 2 7 20 685 794 894 1095 1228 1542 1903 2184 2287 2518 2425 2310 2255 2233 2112 2054 2020 1854 1778 1665 1337 1109 1376 1007 1379 1210 1286 1449 1504 1530 1563 1623 1691 1684 1439 1320 1622 1702 1593 1478 1523 1491 1545 1514 1602 1530 1656 1855 2096 2164 1655 1513 1696 2490 2619 2501 2734 2752 2682 2816 2726 2508 2409 2390 2389 2709 3040 3664 2828 2948 3484 3896 4127 2108 1353 1572 1207 652 164 82
0 0 0 0 0 0 0 0 0 0 0 0 0 0 0 0 0 296 759 860 994 1122 1522 1987 2220 2289 2444 2390 2297 2330 2400 2209 2139 2043 1907 1863 1796 1720 1629 1244 1470 1442 1423 1580 1571 1509 1642 1647 1661 1607 1684 1582 1498 1492 1572 1475 1346 1372 1439 1378 1222 1382 1479 1670 1895 1954 2036 1840 1747 1933 2514 2608 2679 2877 2754 2884 2840 3038 2940 2625 2530 2885 2775 2965 3162 2685 2509 2535 2653 2467 1744 1793 1477 1309 539 342 48
0 0 0 0 0 0 0 0 0 0 0 0 0 0 0 0 0 0 543 828 935 996 1370 1981 2198 2272 2407 2420 2344 2403 2497 2278 2168 2140 2020 2007 1906 1922 1839 1783 1667 1549 1627 1670 1695 1632 1766 1735 1736 1794 1794 1744 1556 1558 1578 1174 1478 1372 1465 1441 1414 1519 1769 1815 1964 2051 2048 1495 2119 2661 2707 2548 2793 2930 2866 3050 3069 3128 3167 2775 2845 2902 2912 2870 2846 2863 2815 2724 2745 2338 1602 1676 1587 1119 598 154 277
0 0 0 0 0 0 0 0 0 0 0 0 0 0 0 0 0 0 274 762 844 834 1087 1740 2234 2272 2397 2425 2387 2462 2534 2393 2272 2247 2124 2127 2104 2031 2080 2022 1909 1727 1677 1722 1761 1788 1805 1885 1980 2110 1930 1837 1692 1707 1780 1734 1883 1884 1712 1735 1717 1885 2123 2091 1962 1993 1749 1277 2031 2853 2628 2494 3042 3106 2997 3002 3119 3303 3134 2980 2881 2937 2886 2842 2958 2937 2793 2614 2615 2115 1889 1524 1207 1239 677 404 286
0 0 0 0 0 0 0 0 0 0 0 0 0 0 0 0 0 2 209 639 869 808 917 1401 1922 2234 2312 2387 2409 2538 2578 2529 2466 2448 2302 2150 2138 2351 2341 2282 2140 1914 1912 1813 1884 1955 1913 1958 2086 2195 2185 2070 1960 1963 1975 2084 2108 2260 2276 2413 2248 2031 2079 2202 2223 2073 2132 1615 1756 2660 2698 2678 3211 3013 2931 2998 3094 3152 3226 3093 2985 2827 3018 3022 3037 2829 2760 2472 2515 2310 1840 1526 1059 727 529 449 445
0 0 0 0 0 0 0 0 0 0 0 0 0 0 0 0 0 0 9 345 637 728 815 1124 1616 1969 2186 2262 2313 2457 2595 2688 2588 2547 2433 2338 2377 2321 2394 2437 2230 2092 2120 2071 1949 2081 2054 2145 2282 2358 2386 2321 2342 2202 2168 2416 2439 2432 2359 2305 2313 2328 2104 2036 2373 2134 2346 2256 1735 2324 2439 2672 3216 2993 3048 3093 2986 3158 3482 3355 3008 3009 3039 3181 3127 2891 2758 2343 2468 1917 1673 1482 1289 770 409 321 374
0 0 0 0 0 0 0 0 0 0 0 0 0 0 0 0 0 0 0 521 768 715 874 1058 1381 1766 2171 2192 2301 2422 2553 2840 2676 2674 2540 2502 2444 2358 2583 2557 2312 2277 2414 2354 2198 2200 2204 2428 2375 2378 2472 2470 2370 2635 2508 2567 2492 2296 2110 1976 1905 1909 2154 2164 2359 2298 1685 1740 1380 1509 2036 2579 3018 3225 3081 3214 3167 3043 3470 3579 3395 3134 3158 3203 3204 2837 2646 2578 2404 2129 1587 1275 1044 1084 365 150 445
0 0 0 0 0 0 0 0 0 0 0 0 0 0 0 0 0 0 0 669 1003 894 932 981 1342 1905 2161 2337 2338 2425 2469 2741 2744 2590 2576 2397 2416 2522 2707 2615 2572 2510 2483 2568 2573 2546 2604 2732 2656 2582 2584 2522 2590 2841 2753 2625 2699 2617 2401 2267 2004 1998 2179 2380 2653 2102 1368 1410 1390 1504 1814 2464 3192 3127 2844 3045 3146 3155 3329 3680 3580 3355 3101 3178 3248 3132 2931 2646 2181 2188 1331 1253 1315 1234 644 152 367
0 0 0 0 0 0 0 0 0 0 0 0 0 0 0 0 0 0 0 549 975 1058 1160 1193 1313 1972 1925 2204 2229 2440 2447 2551 2773 2709 2666 2511 2591 2554 2621 2941 2800 2603 2648 2726 2690 2700 2811 2808 2955 2833 2722 2586 2881 2912 2784 2855 2800 2662 2642 2282 2085 2326 2390 2748 2653 2425 1873 1782 1916 1714 1880 2561 3341 3254 2609 2984 3152 3271 3400 3519 3615 3520 3283 3093 3078 3228 2961 2620 2240 2326 1603 1361 1460 1344 940 190 293
0 0 0 0 0 0 0 0 0 0 0 0 0 0 0 0 0 0 0 39 466 790 1031 1384 1406 1770 1953 2078 2121 2322 2424 2494 2739 2817 2654 2547 2667 2618 2751 2795 2740 2526 2484 2609 2910 2939 3026 3138 3169 3252 2984 3052 3272 3069 2922 2789 2839 3008 2742 2464 2438 2464 2479 2344 2664 2595 2424 2447 2731 2432 2544 2790 3216 3571 2940 2912 3376 3356 3429 3491 3656 3628 3265 3243 3184 3193 2985 2869 2629 2396 2144 1650 1506 1418 1010 210 426
0 0 0 0 0 0 0 0 0 0 0 0 0 0 0 0 0 0 0 0 95 307 659 1076 1500 1528 1858 1952 2094 2089 2360 2483 2522 2722 2693 2732 2684 2686 2669 2775 2856 2564 2640 2721 2815 2906 3116 3304 3395 3406 3194 3172 3304 3196 3190 2996 2982 2952 2746 2748 2731 2721 2427 2467 2683 3027 3056 3308 3324 3254 3119 3299 3003 3490 3477 3197 3518 3462 3438 3596 3463 3482 3446 3080 3120 3167 2921 2819 2840 2784 2496 1862 1716 1463 1142 473 401
0 0 0 0 0 0 0 0 0 0 0 0 0 0 0 0 0 0 0 4 16 1 72 634 1366 1595 1670 1984 1992 1976 2248 2454 2431 2523 2697 2770 2725 2789 2750 2857 2969 2827 2620 2770 2848 2896 2916 3267 3506 3508 3495 3271 3393 3472 3367 3265 3154 3183 3012 3165 2992 2838 2787 2768 2876 3240 3397 3552 3402 3108 3253 3542 3388 3022 2872 3267 3465 3511 3436 3498 3239 3070 3187 3125 3223 3373 3277 2740 2761 2679 2521 2101 1799 1529 1289 668 411
0 0 0 0 0 0 0 0 0 0 0 0 0 0 0 0 0 0 0 0 1 3 0 50 1041 1558 1632 1815 1828 1845 2056 2342 2390 2416 2605 2771 2819 2807 2771 2855 2972 2896 2798 2746 2748 2777 2954 3232 3436 3588 3628 3522 3398 3561 3524 3266 3300 3273 3174 3236 3094 2849 2977 2898 3034 3250 3542 3520 3290 3017 3128 3244 3388 3207 3323 2562 3202 3258 3513 3511 3396 3175 3241 3260 3228 3385 3291 3017 2704 2229 2479 2257 1857 1631 1521 921 541
0 0 0 0 0 0 0 0 0 0 0 0 0 0 0 0 0 0 0 0 0 0 0 0 519 1204 1509 1560 1686 1814 1879 2116 2352 2445 2579 2718 2880 2818 2821 3022 3113 3133 2939 2822 2798 2825 3104 3261 3493 3594 3558 3526 3534 3367 3586 3466 3341 3236 3244 3185 3186 3129 3118 3108 3179 3153 3448 3425 3306 3010 3192 3366 3572 3446 3524 3039 3016 3297 3289 3791 3616 3545 3503 3450 3315 3278 3342 3318 2895 2257 2355 2318 2053 1688 1618 1215 716
0 0 0 0 0 0 0 0 0 0 0 0 0 0 0 0 0 0 0 0 0 0 0 0 0 352 1318 1461 1735 1612 1846 2016 2312 2370 2465 2595 2852 2857 2862 2950 3219 3330 3118 3004 2811 2929 3205 3226 3605 3626 3710 3676 3598 3441 3437 3407 3426 3333 3313 3275 3260 3233 3216 3325 3246 3035 3114 3232 3276 3185 2929 2959 3408 3464 3382 3664 2876 3055 3084 3694 4005 3815 3740 3615 3425 3561 3434 3448 3274 2839 2685 2624 2211 1843 1683 1388 986
0 0 0 0 0 0 0 0 0 0 0 0 0 0 0 0 0 0 0 0 0 0 0 0 0 0 597 1318 1373 1492 1718 2007 2154 2360 2449 2494 2740 2867 2820 2928 3154 3267 3126 2973 2958 3049 3288 3376 3696 3714 3832 3838 3707 3553 3467 3320 3239 3245 3376 3328 3286 3267 3320 3336 3299 3003 2976 3162 3125 3045 3135 2520 2613 3167 3118 3553 3556 3102 3419 3697 4002 3740 3680 3815 3645 3456 3482 3456 3378 3085 2875 2806 2288 1904 1786 1530 1155
0 0 0 0 0 0 0 0 0 0 0 0 0 0 0 0 0 0 0 0 0 0 0 0 0 0 0 760 962 1178 1481 1823 2024 2277 2401 2528 2711 2885 2798 2841 3054 3236 3277 2983 2884 3015 3156 3266 3588 3844 3886 3906 3776 3644 3499 3381 3325 3343 3310 3355 3283 3327 3258 3253 3360 3252 3150 3215 3360 3140 3256 3086 2577 2629 3218 3378 3892 3584 3696 4045 4206 4024 4019 4071 3975 3753 3752 3410 3426 3197 3036 2784 2565 1940 1811 1786 1445
0 0 0 0 0 0 0 0 0 0 0 0 0 0 0 0 0 0 0 0 0 0 0 0 0 0 0 144 897 1111 1284 1572 1890 2121 2365 2540 2643 2885 2784 2843 2893 2967 3115 3000 3056 3183 3149 3231 3443 3761 3804 3890 3821 3735 3422 3238 3307 3517 3409 3468 3550 3446 3400 3266 3165 3308 2983 3183 3318 3382 3129 3188 3047 2829 3142 3725 4040 4155 3982 4100 4125 3974 4135 4102 4053 4055 3836 3596 3523 3318 3150 3222 2907 2091 2111 1939 1594
0 0 0 0 0 0 0 0 0 0 0 0 0 0 0 0 0 0 0 0 0 0 0 0 0 0 7 173 838 1210 1242 1505 1879 2155 2389 2572 2620 2785 2715 2712 2725 2829 2895 3017 3255 3104 3134 3234 3264 3619 3746 3784 3659 3669 3282 3161 3386 3640 3744 3736 3600 3527 3468 3308 3131 3200 3279 3130 3340 3488 3038 3081 3106 2980 3061 3414 3823 4282 4423 4103 4104 4116 4006 4157 3901 3610 3802 3539 3551 3349 3254 3402 3172 2720 2133 2015 1809
0 0 0 0 0 0 0 0 0 0 0 0 0 0 0 0 0 0 0 0 0 0 0 0 0 0 0 105 629 1076 1312 1433 1756 2013 2350 2446 2500 2596 2706 2580 2523 2650 3021 3154 3067 3016 2978 3047 3176 3317 3553 3520 3612 3538 3539 3576 3706 3658 3617 3782 3823 3766 3525 3523 3348 3246 3408 3373 3261 3331 3319 2944 3132 3231 3394 3538 4003 4237 4354 4552 4392 4213 3992 4089 4326 3800 3732 3568 3553 3483 3171 3225 3191 2802 2226 2238 2072
0 0 0 0 0 0 0 0 0 0 0 0 0 0 0 0 0 0 0 0 0 0 0 0 0 0 0 0 128 767 1310 1472 1643 1920 2001 2276 2425 2404 2534 2472 2427 2628 2853 2830 2792 2798 2686 2818 3142 3212 3372 3533 3598 3610 3506 3547 3505 3578 3469 3726 3863 3946 3872 3650 3523 3461 3304 3465 3320 3285 3420 3073 3220 3160 3244 3738 3848 3924 4150 4250 4288 3848 3590 3949 4164 3935 3720 3665 3524 3607 3325 3218 2877 2637 2681 2529 2306
0 0 0 0 0 0 0 0 0 0 0 0 0 0 0 0 0 0 0 0 0 0 0 0 0 0 0 0 0 256 1315 1609 1588 1674 1849 2153 2309 2192 2327 2390 2239 2343 2590 2615 2578 2623 2608 2710 2970 2884 3061 3191 3338 3473 3499 3634 3502 3629 3690 3774 3899 3945 3876 3678 3642 3572 3540 3523 3547 3353 3297 3208 3280 3258 3320 3570 3862 3721 3745 4039 3827 3881 3512 3555 4192 4094 4067 4155 3849 3893 3655 3563 3180 2908 2798 2786 2496
0 0 0 0 0 0 0 0 0 0 0 0 0 0 0 0 0 0 0 0 0 0 0 0 0 0 0 0 0 74 1180 1765 1626 1569 1723 1902 2100 2083 2044 2235 2233 2096 2222 2359 2272 2344 2446 2608 2629 2681 2701 2970 2918 3322 3462 3588 3599 3613 3607 3682 3772 3842 3896 3780 3658 3636 3594 3568 3648 3575 3503 3569 3305 3557 3649 3380 3887 3858 3816 3753 3737 3950 3968 3817 4248 4508 4150 4132 4171 3979 3820 3642 3566 3014 2930 2919 2618
Wind_Speed
16 14 13 11 8 11 12 12 15 12 15 13 12 8 nan 10 8 7 5 9 7 7 10 7 8 6 12 9 7 10 14 13 15 14 9 7 2 2 5 3 1 3 2 3 2 3 6 6 8 9 10 10 7 7 6 5 4 5 7 8 7 7 6 6 6 6 6 5 4 4 3 3 3 3 2 2 1 1 1 3 5 6 6 5 4 5 5 4 4 2 2 3 3 4 5 5 5
13 13 13 9 9 10 12 13 14 14 16 10 nan 13 9 8 10 11 5 12 6 7 8 5 6 9 11 9 7 6 14 16 14 10 9 3 0 3 3 4 4 3 1 1 2 4 5 6 7 9 10 10 7 6 6 6 6 7 8 8 7 7 7 6 6 5 5 5 5 5 4 3 3 3 3 2 2 1 2 3 4 6 5 5 4 4 5 4 3 3 3 3 5 5 6 6 6
11 11 12 9 8 14 12 10 12 13 10 6 8 11 10 7 9 6 5 5 2 4 4 3 4 8 7 8 8 16 8 8 9 8 7 1 2 4 3 4 4 3 1 2 3 4 3 4 5 9 10 9 7 7 7 7 8 9 8 8 8 8 6 6 6 6 6 6 6 5 4 4 3 3 2 2 2 1 1 3 4 4 5 5 5 5 6 4 3 3 4 5 6 7 7 7 7
8 10 10 11 12 14 13 11 12 14 6 7 6 9 10 9 7 6 5 3 1 4 3 4 5 14 11 6 10 10 6 6 6 4 2 3 6 3 3 4 5 3 2 3 2 3 2 3 5 7 7 7 8 8 8 8 9 8 8 8 8 7 7 7 7 7 8 8 7 5 4 3 3 2 2 1 1 1 1 2 3 2 2 3 4 4 4 4 4 3 4 5 6 7 8 8 8
6 8 9 10 14 14 14 13 12 11 6 9 8 7 9 9 7 6 6 3 2 1 3 2 4 7 13 13 11 10 9 9 5 1 1 1 4 3 4 5 4 2 1 2 2 1 2 6 6 8 7 8 8 9 9 9 9 8 8 8 7 7 8 8 8 9 9 8 6 5 4 3 2 2 1 1 1 2 2 2 2 2 1 2 2 3 4 4 4 4 5 6 6 7 7 8 8
4 3 6 10 11 12 14 13 10 4 3 6 6 9 9 9 8 8 7 5 3 1 3 4 5 1 5 12 13 7 3 4 3 2 2 3 8 6 5 4 3 2 2 3 3 3 6 7 7 9 9 9 9 10 10 9 8 8 8 8 7 8 8 8 9 9 8 7 5 4 3 3 2 2 1 1 2 2 3 2 2 2 3 3 2 2 2 3 3 4 4 5 6 7 7 8 10
4 4 5 8 12 12 12 12 3 3 5 5 6 7 8 9 9 7 8 7 3 5 4 5 5 5 5 5 9 10 12 5 1 3 1 7 7 7 5 4 3 2 4 4 5 6 9 7 7 10 11 11 11 10 8 7 8 8 8 8 9 9 9 8 8 8 7 6 5 4 3 2 2 2 1 2 2 2 2 2 2 3 3 3 3 2 2 2 3 3 2 4 5 6 7 8 8
5 8 4 9 9 11 13 7 2 3 5 5 5 6 7 8 8 6 7 4 5 2 2 6 2 7 12 5 8 10 3 3 6 6 8 7 7 6 6 4 4 4 5 5 5 6 8 7 7 10 10 10 10 9 8 8 8 8 9 9 9 9 8 7 7 8 7 5 5 5 4 4 3 2 2 1 2 2 2 2 3 3 4 4 3 2 2 2 2 2 3 3 4 5 6 7 8
6 9 6 9 11 9 9 4 5 4 6 3 6 9 5 7 6 7 7 6 6 4 2 1 4 5 7 6 9 5 6 5 8 9 10 9 8 8 4 6 5 4 6 6 6 8 8 7 9 10 10 10 9 8 8 9 9 9 8 9 8 8 7 6 7 7 6 6 6 7 6 6 5 5 4 4 4 4 3 3 3 3 3 3 3 3 2 2 2 2 2 3 3 4 5 6 7
7 7 6 10 11 11 5 3 nan 8 7 7 6 5 5 4 6 4 8 7 5 6 6 3 4 8 3 8 5 3 3 5 9 9 10 11 9 8 8 9 8 8 6 6 8 9 6 7 9 10 10 9 8 8 8 8 8 7 7 8 7 7 6 6 7 7 7 7 8 9 9 9 8 8 8 7 8 7 7 6 5 5 5 5 5 4 3 3 2 1 2 1 0 1 2 3 5
7 5 8 8 7 9 nan nan nan nan 9 6 8 6 5 4 5 7 6 9 7 7 8 4 3 8 7 7 10 9 3 7 8 10 12 11 9 8 9 9 10 10 8 9 10 9 8 8 8 9 8 7 6 6 6 7 7 7 7 7 6 6 6 6 7 7 8 9 10 10 11 10 10 10 10 10 10 10 9 8 8 8 8 8 7 7 5 5 4 4 4 4 3 2 1 1 1
10 8 4 8 10 12 11 8 nan nan 8 6 9 6 4 5 4 6 8 8 6 8 6 2 8 5 8 4 5 4 4 7 8 9 11 11 9 9 9 8 11 11 11 10 12 10 10 8 6 8 8 6 5 5 6 6 6 6 6 7 7 6 7 7 7 8 9 10 11 12 12 11 11 11 11 11 11 11 11 10 9 9 9 9 8 8 7 6 6 5 5 5 4 3 3 3 3
10 10 8 8 10 10 12 7 8 nan 8 8 10 7 5 4 4 6 7 8 5 5 7 4 11 1 5 5 6 7 6 7 7 9 11 9 8 7 8 9 10 11 12 12 12 12 12 8 5 6 5 6 5 5 5 5 6 6 6 6 6 7 7 8 8 9 10 11 12 12 12 12 11 11 11 11 12 12 12 10 9 9 9 9 9 8 8 7 7 7 6 5 5 5 5 4 5
10 10 12 11 10 8 10 8 5 3 11 13 10 8 5 4 5 7 6 7 6 5 10 9 4 6 11 10 5 7 6 8 9 8 7 9 8 7 10 10 11 12 12 12 12 13 11 7 5 4 3 4 3 4 5 5 6 6 6 6 6 7 8 9 9 10 11 11 12 12 12 12 11 11 11 11 12 12 12 10 10 10 10 9 9 9 9 9 9 9 8 7 6 6 6 6 6
9 9 11 10 10 7 4 7 8 6 13 9 13 7 6 6 6 6 5 7 9 12 10 5 7 1 5 2 3 8 11 11 10 8 7 8 9 8 10 10 11 11 13 13 12 12 10 8 6 1 3 3 4 5 5 6 6 6 7 6 7 8 9 10 11 11 11 12 12 12 12 12 12 12 11 12 11 12 12 11 11 10 10 10 8 9 8 9 9 9 9 9 8 7 7 6 6
10 11 10 11 9 9 7 5 5 5 14 9 12 9 6 7 5 4 8 9 10 7 5 7 4 14 8 3 4 10 16 15 11 9 7 8 8 8 9 10 10 12 12 13 11 9 9 7 3 1 3 3 5 5 5 6 6 6 7 7 8 9 10 11 11 12 11 11 12 12 13 14 14 13 12 12 11 11 12 12 11 10 10 10 9 8 8 8 9 9 10 10 10 9 8 7 6
10 11 10 9 8 6 10 nan 6 nan 12 12 9 8 6 6 6 10 12 9 7 7 3 10 5 10 4 11 10 11 15 16 14 12 9 6 5 6 7 7 8 10 10 12 10 8 9 6 5 2 2 3 5 5 5 5 4 6 7 8 9 10 11 11 12 12 12 12 12 13 14 17 14 12 14 13 12 12 10 11 10 10 10 10 9 8 8 9 9 10 9 10 11 10 10 9 8
9 8 10 9 11 8 12 14 14 nan 12 12 8 6 6 7 6 8 6 6 7 8 6 9 10 10 11 15 14 12 13 15 16 14 9 7 4 6 7 8 10 12 12 11 10 8 7 5 4 2 3 3 4 5 7 6 5 7 8 9 11 11 12 12 13 13 13 12 13 12 15 14 13 13 11 12 12 11 10 10 10 10 9 9 8 9 9 10 9 10 10 10 10 12 13 16 11
7 9 10 11 10 15 11 13 13 10 15 13 9 6 3 7 5 7 3 5 8 7 7 7 9 11 15 16 16 13 13 11 14 15 13 11 7 9 9 9 11 13 14 12 9 9 6 5 4 2 3 3 3 5 7 6 5 8 8 10 12 12 12 13 13 13 13 12 13 13 13 13 12 12 11 10 12 10 9 9 8 9 9 9 11 11 11 10 11 11 10 11 11 12 12 13 14
6 11 10 9 11 12 8 9 11 11 11 11 9 7 4 9 5 7 5 4 5 3 6 5 7 11 12 15 15 14 13 11 11 14 15 12 11 11 12 13 12 13 13 11 9 6 5 5 3 3 3 3 4 6 7 7 7 9 10 11 13 12 13 13 13 13 12 11 12 13 12 11 11 11 9 9 13 11 8 10 9 11 12 12 12 17 13 12 11 14 12 13 11 16 14 14 12
8 8 9 12 15 7 6 7 8 10 11 10 8 8 4 7 5 4 6 5 1 4 1 3 6 11 14 14 15 14 14 13 10 12 13 13 11 10 10 12 13 12 10 10 7 6 6 4 4 3 3 3 5 6 7 8 8 9 10 11 12 12 13 12 12 11 11 10 11 11 11 9 11 11 10 10 12 10 9 10 9 11 10 8 11 9 10 8 12 9 12 13 11 9 8 8 11
13 7 8 11 11 8 13 10 12 9 10 nan 7 5 4 8 4 3 4 7 7 5 2 1 4 10 14 16 16 14 14 14 13 11 12 13 12 11 10 10 11 11 8 8 8 6 5 4 5 4 3 4 6 7 8 8 8 10 10 11 12 12 12 12 11 11 9 10 10 10 9 8 10 10 10 10 10 10 10 8 9 8 9 8 9 8 7 8 8 7 7 7 7 7 6 7 6
11 6 8 10 11 11 12 10 9 8 8 9 7 5 4 4 3 3 5 5 12 11 6 1 3 8 12 14 16 16 15 15 15 14 13 13 12 10 10 8 10 10 8 7 6 5 4 4 5 5 4 4 5 7 7 8 9 10 10 11 11 11 11 11 11 10 9 8 9 8 9 8 10 9 9 9 10 9 9 9 8 8 8 8 7 7 6 7 7 6 6 6 6 7 6 5 7
9 11 10 8 8 8 9 8 7 5 7 8 7 7 3 0 5 2 4 3 7 8 7 3 6 7 10 14 15 17 17 16 15 13 13 13 13 12 11 10 9 9 9 8 5 4 3 4 5 6 5 5 5 6 7 8 9 10 10 10 12 10 10 10 9 9 7 7 8 7 10 8 9 9 8 8 9 9 9 8 8 9 6 7 5 6 6 6 6 5 6 6 7 7 6 6 6
6 10 11 14 13 11 10 8 7 7 7 6 6 6 4 3 6 4 4 3 6 8 7 7 8 9 11 13 15 15 15 14 14 12 10 8 10 11 10 8 9 9 9 9 4 3 4 4 3 6 5 5 6 6 7 9 9 10 9 10 10 9 11 9 8 7 7 7 6 7 8 9 8 8 7 7 8 8 8 8 8 7 6 6 6 4 5 5 5 5 5 7 6 6 6 6 5
6 11 13 13 14 nan nan nan nan nan nan nan 4 nan 5 7 7 11 5 5 6 7 10 9 9 10 12 13 16 16 15 15 13 12 10 8 9 11 10 9 8 9 8 8 6 3 4 4 4 4 5 5 5 6 8 8 8 9 10 10 9 9 10 9 6 7 6 6 6 7 7 8 8 7 6 7 7 7 7 7 7 6 6 4 5 4 5 6 4 5 5 6 6 6 5 4 5
nan nan nan nan nan nan nan nan nan nan nan nan nan nan nan nan 6 6 6 6 10 11 11 10 9 10 12 12 14 15 16 16 13 9 8 8 9 8 8 9 7 8 7 7 4 3 3 5 4 4 4 5 5 6 7 7 8 9 9 9 9 9 8 8 7 7 6 5 5 5 7 7 8 7 5 6 6 6 6 6 6 4 5 4 4 5 4 4 4 4 4 5 5 4 4 4 4
nan nan nan nan nan nan nan nan nan nan nan nan nan nan nan nan 7 9 1 11 14 12 12 11 9 10 11 14 13 13 13 14 10 8 9 8 6 6 7 6 6 6 6 5 2 3 3 4 4 3 3 4 6 6 6 7 7 8 8 9 8 8 7 7 7 6 5 6 5 4 6 6 7 6 5 5 6 5 5 4 4 4 3 3 3 3 3 3 3 3 4 4 5 5 4 4 2
nan nan nan nan nan nan nan nan nan nan nan nan nan nan nan nan 12 12 6 12 13 12 13 13 11 10 12 13 12 10 11 13 12 9 9 6 5 4 6 5 5 5 3 4 2 3 4 3 5 3 3 3 5 6 6 7 7 7 7 8 8 7 7 7 6 5 5 4 4 5 4 5 6 6 5 6 6 5 4 4 5 4 4 4 4 3 3 4 4 6 7 7 6 6 5 3 4
nan nan nan nan nan nan nan nan nan nan nan nan nan nan nan nan 10 6 5 11 13 12 12 13 10 10 10 12 11 10 10 13 14 12 10 7 4 4 4 5 5 4 3 1 2 3 6 7 5 5 4 4 4 6 7 7 7 7 8 8 8 7 7 6 5 5 5 4 4 3 4 5 6 5 5 5 6 4 4 5 5 5 5 4 5 5 5 4 4 5 6 7 7 7 5 4 3
nan nan nan nan nan nan nan nan nan nan nan nan nan nan nan nan 2 2 4 10 14 13 13 14 13 12 11 12 11 11 12 11 13 13 11 9 5 2 4 3 4 4 2 2 1 3 4 5 6 5 4 3 4 5 5 7 7 8 7 7 7 6 6 6 5 4 4 4 4 2 4 4 5 5 5 5 5 5 4 5 6 5 4 4 5 5 4 3 5 6 7 8 8 9 7 6 5
nan nan nan nan nan nan nan nan nan nan nan nan nan nan nan nan 11 5 3 8 11 11 13 14 13 13 13 12 13 12 12 11 12 12 11 8 5 2 3 4 4 3 2 2 2 4 4 5 5 5 1 2 3 5 6 7 7 7 7 7 7 6 7 6 4 5 4 4 4 3 3 4 5 5 5 5 5 5 5 5 5 4 5 4 4 5 5 5 5 6 7 9 9 7 7 9 8
nan nan nan nan nan nan nan nan nan nan nan nan nan nan nan nan 11 6 1 6 10 9 11 13 14 15 14 12 12 12 12 13 11 11 11 7 3 1 1 3 4 5 2 1 3 4 4 3 4 4 2 2 2 3 4 4 6 6 6 6 5 5 6 6 6 5 5 5 4 4 2 4 4 5 6 5 5 5 5 5 5 6 5 5 4 4 4 3 4 6 8 7 8 9 nan nan nan
nan nan nan nan nan nan nan nan nan nan nan nan nan nan nan nan 10 7 2 4 7 9 10 12 11 11 12 12 13 14 14 14 14 13 12 8 3 3 1 1 4 4 2 2 4 4 4 3 4 5 3 2 3 3 3 4 4 5 6 6 6 6 6 7 7 6 6 5 5 5 3 3 4 4 5 5 5 6 6 6 5 6 5 5 4 4 3 4 5 6 7 8 8 7 nan nan nan
nan nan nan nan nan nan nan nan nan nan nan nan nan nan nan nan 12 8 5 3 5 7 7 9 10 11 11 11 13 16 15 16 15 13 13 9 7 6 2 3 4 3 1 3 5 4 4 3 3 4 3 2 1 2 2 3 4 4 5 5 5 5 6 7 8 7 6 6 5 3 3 4 3 4 5 6 6 7 8 8 7 7 6 6 4 4 3 3 4 6 7 9 9 8 7 nan nan
nan nan nan nan nan nan nan nan nan nan nan nan nan nan nan nan nan 12 8 5 4 6 6 7 7 7 9 10 12 14 15 15 12 12 13 9 6 5 3 3 3 2 1 4 5 4 3 2 2 3 3 2 2 2 2 3 4 4 4 5 6 6 6 6 6 7 7 6 5 4 3 4 3 3 5 6 7 8 9 8 8 8 8 7 7 6 4 3 4 6 9 11 12 11 11 9 nan
nan nan nan nan nan nan nan nan nan nan nan nan nan nan nan nan nan 13 11 7 5 5 5 6 7 6 8 10 13 14 15 14 11 11 10 10 9 6 4 3 2 3 2 4 5 5 4 3 3 4 3 4 2 2 3 3 4 4 5 5 5 4 4 5 6 6 6 6 5 5 3 3 3 4 5 7 8 8 9 8 9 9 9 9 8 7 6 5 6 8 9 11 13 11 10 12 nan
nan nan nan nan nan nan nan nan nan nan nan nan nan nan nan nan nan nan 13 9 6 5 5 6 6 5 6 10 12 13 11 8 11 8 8 7 6 7 5 2 2 4 2 4 5 5 5 5 5 4 3 4 3 2 3 3 4 4 4 4 4 4 3 4 5 5 6 5 5 5 4 4 4 5 6 7 7 8 8 9 9 9 9 8 8 7 6 6 7 9 10 11 11 10 10 10 10
nan nan nan nan nan nan nan nan nan nan nan nan nan nan nan nan nan nan 14 10 11 7 5 3 3 4 5 8 9 9 8 9 11 11 9 6 7 8 5 2 1 2 2 5 5 5 5 5 5 5 4 3 3 1 2 3 3 3 3 3 3 4 4 5 5 6 7 7 4 4 4 5 5 5 6 6 7 7 8 8 9 8 8 8 7 7 7 7 8 10 11 10 10 11 10 9 12
nan nan nan nan nan nan nan nan nan nan nan nan nan nan nan nan nan nan 17 13 13 10 7 6 5 3 5 8 7 7 9 9 12 12 11 7 6 5 4 2 1 2 4 5 4 5 4 4 5 5 4 3 3 1 1 2 2 2 4 4 4 6 5 6 7 8 9 8 6 4 5 6 6 6 6 7 6 6 7 8 8 7 7 7 7 6 7 8 9 10 10 10 10 9 11 11 12
nan nan nan nan nan nan nan nan nan nan nan nan nan nan nan nan nan nan nan 15 15 12 10 8 6 6 6 7 7 7 9 9 10 11 10 8 6 5 4 2 1 2 4 4 3 3 5 4 4 4 4 3 3 1 1 1 2 3 4 5 5 7 9 9 9 9 9 8 8 7 6 6 6 6 6 7 7 7 6 7 7 7 6 6 6 7 8 8 9 9 9 10 10 9 8 10 11
nan nan nan nan nan nan nan nan nan nan nan nan nan nan nan nan nan nan nan 22 16 15 12 7 6 7 6 8 8 8 8 7 9 12 12 10 7 4 3 3 1 2 3 4 4 2 3 4 4 4 5 5 3 2 2 2 3 3 3 5 6 7 8 8 7 5 5 5 8 7 7 6 6 7 7 7 8 7 7 7 7 7 6 6 7 7 7 8 9 9 9 9 10 9 6 8 11
nan nan nan nan nan nan nan nan nan nan nan nan nan nan nan nan nan nan nan 22 18 19 13 8 8 7 5 6 7 7 8 7 8 8 9 9 8 7 5 3 1 2 3 5 5 3 2 4 4 4 6 6 5 3 4 3 3 4 3 5 7 7 7 6 4 4 6 6 7 6 5 5 6 8 9 9 8 8 7 7 7 6 5 5 6 7 8 9 9 9 9 9 9 8 9 10 12
nan nan nan nan nan nan nan nan nan nan nan nan nan nan nan nan nan nan nan 23 22 21 14 10 9 5 4 4 4 5 6 7 6 8 10 11 10 7 7 5 2 2 4 5 5 5 3 4 4 4 6 7 6 6 5 4 5 4 5 6 8 7 5 4 3 5 7 7 5 5 3 3 5 7 9 10 10 10 8 8 7 6 5 5 6 8 7 8 8 10 11 11 10 10 11 11 13
nan nan nan nan nan nan nan nan nan nan nan nan nan nan nan nan nan nan nan nan 24 21 14 10 8 6 5 4 4 3 4 6 6 6 9 11 10 8 5 5 4 3 4 4 5 6 5 5 4 4 5 6 7 6 5 4 6 6 6 7 7 7 4 5 6 6 7 6 4 2 1 2 4 7 9 11 12 12 11 9 9 7 5 5 6 7 7 8 9 11 14 14 13 12 13 14 13
nan nan nan nan nan nan nan nan nan nan nan nan nan nan nan nan nan nan nan nan nan 21 15 12 10 8 6 6 4 3 2 4 6 7 7 8 9 7 6 5 6 3 3 5 6 6 5 4 3 1 4 6 7 6 5 4 5 7 6 6 4 5 6 7 7 7 6 5 3 1 1 1 3 6 9 11 12 14 13 12 10 9 6 5 5 6 7 8 10 13 15 14 14 15 14 14 15
nan nan nan nan nan nan nan nan nan nan nan nan nan nan nan nan nan nan nan nan nan nan nan 18 14 10 7 6 5 3 1 0 3 5 6 6 5 5 5 6 6 4 4 5 4 3 3 3 1 1 2 5 6 5 4 4 5 7 7 5 3 4 4 6 7 7 7 6 4 2 2 2 3 5 7 10 12 14 15 14 11 10 7 5 5 6 7 9 11 14 14 14 15 16 14 14 13
nan nan nan nan nan nan nan nan nan nan nan nan nan nan nan nan nan nan nan nan nan nan nan nan 15 10 9 8 7 5 2 1 1 2 3 3 2 2 3 4 5 5 4 4 4 3 2 2 2 0 1 2 4 5 3 4 6 6 7 5 4 5 5 7 6 6 7 5 4 3 3 3 3 4 5 7 10 14 14 14 13 10 8 6 6 6 8 9 11 14 13 13 14 15 14 12 12
nan nan nan nan nan nan nan nan nan nan nan nan nan nan nan nan nan nan nan nan nan nan nan nan 17 13 10 8 6 6 5 2 2 2 2 2 1 2 4 4 4 5 4 4 4 4 3 3 2 2 1 2 4 4 3 3 5 6 7 6 6 7 6 6 7 7 7 7 6 5 5 4 5 5 6 7 9 12 14 15 14 12 9 7 5 7 8 9 11 12 12 13 14 14 13 13 12
nan nan nan nan nan nan nan nan nan nan nan nan nan nan nan nan nan nan nan nan nan nan nan nan nan 18 13 11 9 9 7 4 3 4 3 2 1 0 2 4 4 5 5 6 5 5 6 7 5 4 3 4 6 5 4 3 3 5 6 7 7 8 7 7 8 7 7 8 8 6 6 6 6 5 6 7 7 10 12 15 15 14 11 9 8 7 8 10 12 12 12 12 13 13 13 14 12
nan nan nan nan nan nan nan nan nan nan nan nan nan nan nan nan nan nan nan nan nan nan nan nan nan nan 18 14 13 10 9 7 6 6 3 1 1 2 3 3 4 6 6 6 7 7 9 9 8 6 6 6 5 5 6 4 5 5 6 6 7 8 8 9 9 9 9 8 8 7 7 7 7 6 6 6 7 9 12 14 15 15 13 11 10 9 9 10 12 11 10 11 12 12 13 13 13
nan nan nan nan nan nan nan nan nan nan nan nan nan nan nan nan nan nan nan nan nan nan nan nan nan nan nan 18 15 12 10 7 6 4 3 2 4 5 5 5 5 7 8 7 7 8 9 9 9 8 8 8 6 6 6 6 7 8 6 5 4 6 9 10 11 11 11 10 10 9 9 9 8 7 7 7 8 10 12 14 15 15 14 12 10 10 10 11 12 11 9 10 12 11 13 15 13
nan nan nan nan nan nan nan nan nan nan nan nan nan nan nan nan nan nan nan nan nan nan nan nan nan nan nan 19 15 12 10 7 5 3 3 3 5 7 6 5 7 8 9 8 9 10 10 12 12 11 10 9 8 7 7 8 8 7 5 5 6 6 6 7 9 9 10 11 10 10 10 10 10 9 8 7 8 10 12 14 15 15 14 12 10 11 11 11 12 11 9 10 12 12 13 14 13
nan nan nan nan nan nan nan nan nan nan nan nan nan nan nan nan nan nan nan nan nan nan nan nan nan nan nan 20 17 14 10 7 3 2 3 5 6 8 8 7 7 8 8 9 10 11 12 13 13 13 12 10 9 10 9 9 8 7 8 7 6 5 7 7 9 10 11 11 11 11 10 11 10 11 10 9 9 11 12 15 15 16 15 13 11 10 11 12 12 10 9 9 11 12 13 12 13
nan nan nan nan nan nan nan nan nan nan nan nan nan nan nan nan nan nan nan nan nan nan nan nan nan nan nan 20 17 15 11 10 8 5 6 5 5 6 9 11 11 9 9 9 11 12 12 12 12 13 13 12 12 12 12 12 10 11 10 9 7 7 7 8 10 11 12 12 11 13 12 11 12 12 12 10 10 11 12 14 16 17 16 14 12 11 12 12 13 10 10 8 10 12 13 13 13
nan nan nan nan nan nan nan nan nan nan nan nan nan nan nan nan nan nan nan nan nan nan nan nan nan nan nan nan 20 17 14 12 9 8 6 5 6 7 9 10 12 13 13 11 12 11 10 11 12 11 11 12 12 12 12 11 11 12 11 11 10 9 9 9 10 12 12 11 12 13 13 13 13 13 12 12 11 11 13 14 16 17 17 16 14 12 12 13 13 11 11 9 10 12 13 14 14
nan nan nan nan nan nan nan nan nan nan nan nan nan nan nan nan nan nan nan nan nan nan nan nan nan nan nan nan nan 19 16 13 12 10 7 5 5 7 9 10 10 11 13 14 13 11 9 10 10 11 12 12 12 12 12 12 12 12 13 13 12 11 11 11 11 12 12 12 13 13 14 14 14 13 13 13 12 12 12 14 16 18 18 16 15 13 13 14 14 13 12 10 9 12 13 14 15
nan nan nan nan nan nan nan nan nan nan nan nan nan nan nan nan nan nan nan nan nan nan nan nan nan nan nan nan nan nan 19 15 13 11 8 6 4 5 8 11 12 12 13 14 14 13 11 10 10 11 12 11 12 12 12 13 13 13 13 13 14 14 13 13 13 13 13 13 14 14 15 16 14 14 13 13 13 13 13 14 16 18 18 17 16 14 14 14 15 15 14 12 10 11 12 14 15
Wind_Direction
25 35 35 33 44 64 57 75 88 72 74 89 120 124 nan 136 134 109 126 68 75 94 101 77 101 107 125 153 176 182 175 168 155 125 166 172 213 221 133 117 85 76 233 252 297 3 10 358 359 351 348 352 5 12 10 10 20 14 357 342 341 347 349 355 358 7 20 28 29 34 37 36 36 43 50 57 68 144 185 212 210 209 210 211 216 211 230 233 221 215 221 231 235 235 229 220 225
31 36 38 32 44 44 78 74 99 73 75 98 nan 125 155 137 104 142 123 109 138 68 74 84 103 130 134 159 164 179 193 183 190 190 191 211 147 142 72 76 81 80 119 288 30 42 25 9 6 355 352 350 2 7 360 4 13 12 349 342 342 349 353 359 3 11 20 26 31 30 26 28 35 40 43 48 49 94 199 221 217 217 213 209 212 209 216 228 218 215 219 223 229 234 230 228 222
28 39 47 36 63 79 101 72 97 111 105 127 144 150 118 147 159 150 158 132 90 47 57 92 109 116 137 132 154 149 171 187 218 211 189 314 91 109 33 63 87 86 48 84 65 54 60 29 24 1 353 355 359 358 4 4 11 3 346 344 349 355 1 4 5 13 21 26 26 23 24 26 37 42 43 42 63 78 193 222 226 220 211 208 201 206 202 199 206 214 222 221 223 224 228 229 221
29 53 60 57 74 68 80 69 73 98 128 143 151 152 162 164 184 194 182 222 12 41 51 38 97 148 127 142 172 191 211 193 196 268 196 75 135 48 24 48 65 74 55 73 59 67 59 23 40 11 360 350 350 3 6 8 10 358 349 355 1 6 9 7 12 19 22 24 23 23 23 31 36 44 41 66 95 136 186 224 241 251 225 235 221 209 213 201 186 202 218 221 225 225 225 224 223
33 56 82 77 97 80 82 81 90 99 148 154 185 184 181 195 212 211 233 257 297 16 60 157 168 161 174 182 152 151 188 211 227 188 256 165 305 20 30 31 64 59 0 356 29 30 359 7 53 16 4 351 356 6 7 8 4 358 0 6 11 15 14 14 17 20 23 22 18 22 26 35 49 60 76 122 170 182 195 205 238 267 264 234 216 217 213 207 205 208 214 225 227 227 234 230 226
55 63 89 91 93 115 90 82 66 90 194 147 202 204 205 212 226 235 255 270 247 213 189 118 169 95 174 178 164 189 159 156 248 177 326 278 331 347 5 45 66 46 317 353 3 18 10 22 44 14 4 357 5 6 5 1 0 7 12 14 19 19 19 19 18 22 23 18 15 18 26 33 57 74 112 175 179 186 185 187 207 232 238 230 236 207 200 202 195 212 227 231 236 238 235 234 231
78 73 93 90 91 85 87 86 110 133 247 139 222 243 232 236 243 267 272 269 230 218 153 177 203 227 189 185 207 187 173 210 342 318 336 321 330 346 0 48 53 350 335 357 2 356 352 24 38 1 358 358 358 358 355 1 9 15 19 19 23 22 21 18 21 24 23 17 18 27 34 50 57 83 132 168 175 174 166 179 203 223 238 242 234 203 182 178 190 196 216 242 246 252 247 244 244
87 89 92 101 94 71 79 96 121 172 242 173 216 256 263 264 272 276 280 285 275 212 187 196 163 174 205 137 169 180 172 114 253 313 299 325 334 347 12 28 33 354 344 349 353 346 339 24 20 349 354 357 353 351 357 8 16 22 20 23 25 26 22 19 24 28 27 29 41 51 55 62 72 98 119 140 154 153 158 176 206 218 225 227 229 224 207 196 210 222 225 255 259 256 253 250 248
92 101 136 115 101 78 88 125 223 208 258 224 240 225 257 279 289 285 285 233 276 234 267 227 187 161 183 199 203 188 168 248 293 293 314 316 335 352 27 9 7 357 344 346 340 336 349 20 359 348 352 353 351 352 0 11 20 23 27 30 30 29 25 24 34 39 45 52 63 67 69 74 86 97 106 111 121 118 118 132 147 153 166 178 181 185 202 215 220 236 266 264 267 255 254 254 249
102 125 143 137 150 110 107 204 nan 226 226 227 230 261 269 286 281 287 264 274 253 274 258 224 168 200 246 221 230 157 157 303 301 313 324 326 331 351 353 358 346 341 350 343 341 345 348 357 351 353 353 352 351 356 6 17 25 32 34 35 37 34 33 38 46 55 63 69 74 77 79 83 90 94 97 103 105 110 109 108 108 107 108 113 120 128 134 147 151 158 144 179 207 251 261 261 258
113 107 134 134 117 122 nan nan nan nan 246 236 250 252 255 256 265 260 250 257 274 272 265 254 245 263 248 227 202 193 277 319 323 330 331 324 335 346 351 355 348 348 356 349 349 343 342 352 358 356 354 355 356 2 16 23 29 37 43 44 44 45 48 55 60 71 76 79 81 83 85 87 89 92 94 99 101 104 104 103 101 101 102 105 106 102 107 102 103 105 93 87 86 96 68 28 323
129 123 126 145 170 165 178 178 nan nan 252 247 253 257 246 259 258 265 261 279 292 274 274 13 244 274 261 249 212 230 309 335 328 332 332 329 331 345 346 353 351 355 358 357 350 344 344 347 17 4 356 357 4 9 21 26 34 45 50 54 53 57 63 68 75 79 84 84 85 85 87 87 87 88 92 93 95 95 95 92 94 98 97 97 95 91 90 88 86 88 89 86 87 85 79 66 43
133 153 141 149 192 167 172 138 231 nan 260 258 265 262 250 268 239 249 257 254 272 283 274 219 257 222 259 250 254 276 324 324 319 342 336 333 328 342 346 344 351 357 2 0 355 345 342 350 13 29 3 358 9 18 23 31 42 51 59 61 63 70 77 82 85 86 87 86 85 84 84 85 84 85 87 88 90 93 95 101 100 95 89 83 80 82 82 85 86 86 89 86 80 77 76 71 63
133 158 159 167 191 161 145 181 203 207 251 252 256 270 262 247 228 227 244 264 262 239 252 250 265 210 237 251 292 300 307 313 310 333 343 336 321 338 343 340 353 358 4 4 357 350 350 345 27 25 16 37 44 32 32 39 50 58 65 71 75 83 90 93 93 91 90 88 85 83 81 81 81 81 79 82 85 91 93 96 92 86 81 80 81 81 78 77 79 81 82 80 78 80 80 80 64
141 166 151 163 173 153 187 137 207 207 252 248 258 273 269 232 234 223 211 242 241 230 250 247 219 241 226 313 316 326 317 312 315 321 335 329 318 332 338 342 353 358 7 4 357 356 357 1 9 343 70 70 45 69 70 63 54 64 72 81 89 93 99 99 98 96 92 89 86 82 81 79 79 78 78 78 83 85 84 75 92 90 88 81 80 83 81 79 79 80 82 82 78 74 70 61 66
156 157 157 161 175 160 235 167 200 224 248 227 270 274 275 255 231 223 219 188 241 242 271 236 189 187 245 181 303 316 321 314 313 312 322 321 320 325 334 343 348 1 6 6 360 3 3 12 14 31 91 79 75 71 65 65 65 72 83 89 97 101 102 102 99 96 93 89 86 84 80 79 74 74 75 78 79 86 103 111 91 91 92 91 87 83 79 80 78 75 73 69 70 74 63 51 55
169 162 151 161 170 166 226 nan 192 nan 233 245 270 292 281 275 260 221 222 222 260 263 223 229 221 210 233 207 280 302 318 312 314 314 309 312 318 329 338 347 349 360 8 5 6 8 8 17 20 114 103 77 74 77 80 76 81 76 95 99 101 103 103 101 99 93 89 85 83 82 83 87 86 88 79 88 78 86 91 87 95 92 92 95 88 90 88 82 80 74 68 70 72 70 62 42 38
182 164 158 159 186 181 219 202 210 nan 213 241 262 273 267 272 275 251 243 243 237 257 237 240 233 205 225 251 279 295 309 320 322 314 309 314 328 327 339 351 354 0 2 4 9 13 20 29 45 105 128 83 90 114 114 110 107 91 104 110 109 107 103 101 99 98 90 93 83 87 92 94 94 92 95 88 88 81 78 96 89 87 87 90 93 88 89 80 73 70 67 67 66 65 67 67 46
182 174 159 163 205 221 206 211 215 205 229 222 240 267 245 258 277 262 225 269 266 269 246 257 254 243 246 274 282 300 309 322 329 323 321 327 334 335 347 347 359 358 1 5 10 16 33 45 77 128 124 105 95 107 119 120 100 111 112 115 121 109 109 103 106 100 99 98 94 95 97 97 97 96 98 108 110 107 96 90 87 85 81 86 79 76 70 69 65 60 59 64 61 59 65 76 66
170 165 167 167 201 217 204 204 217 219 218 231 242 270 272 259 254 253 156 250 280 273 252 275 278 273 280 288 301 305 316 323 336 333 329 330 339 341 351 352 358 0 359 3 7 20 34 71 95 121 139 107 112 120 118 122 118 116 124 125 125 121 116 113 109 105 104 100 99 102 100 105 101 101 105 90 84 81 78 72 81 76 66 59 84 67 43 51 64 51 42 39 44 54 55 53 62
210 166 170 189 214 192 218 191 211 222 217 223 239 257 266 269 236 225 170 178 153 150 210 317 313 299 296 307 312 313 319 322 338 341 335 334 343 347 356 356 359 357 354 2 6 20 32 72 105 129 142 134 115 122 117 120 125 123 130 130 128 125 120 114 111 106 105 99 100 100 100 101 99 100 94 94 96 96 91 86 75 76 80 76 74 75 68 63 51 49 43 36 46 58 56 58 71
193 178 169 180 221 196 231 221 229 219 224 nan 231 247 247 258 217 164 152 151 182 162 170 54 313 312 309 320 322 321 326 327 334 339 339 336 342 348 350 359 353 351 348 9 8 17 34 83 108 131 150 124 122 119 118 127 126 126 132 134 130 128 123 118 115 110 106 99 99 98 101 97 99 98 96 96 96 96 92 97 93 90 78 81 77 79 82 73 75 65 69 69 61 53 56 73 70
167 185 157 169 189 180 213 204 220 221 205 194 204 223 226 294 199 153 137 125 199 207 222 292 324 333 320 321 322 328 331 331 334 339 334 333 336 342 341 351 347 348 352 13 11 30 45 82 113 121 114 112 87 111 124 131 128 131 138 137 132 130 128 122 116 114 111 105 100 103 98 97 96 97 98 98 101 98 95 89 87 87 88 86 85 81 71 72 74 72 71 72 63 65 58 52 56
151 167 191 182 185 165 184 183 207 189 177 172 179 188 133 304 112 194 115 106 197 202 223 270 298 324 324 330 335 334 330 329 331 331 332 328 332 337 334 339 338 344 357 3 19 44 69 72 113 117 124 129 127 123 127 135 134 132 139 142 136 139 131 122 120 116 121 107 102 103 105 105 98 100 101 100 98 99 97 93 91 89 75 83 84 76 78 78 74 68 69 68 62 54 66 54 45
146 147 156 169 181 182 177 176 167 159 156 164 158 135 121 104 125 155 71 62 262 228 252 271 304 330 339 341 342 336 329 326 321 320 316 310 320 325 326 318 336 343 354 4 11 58 75 104 107 111 122 122 136 133 133 139 140 138 142 140 138 146 129 127 127 124 121 114 101 99 98 100 102 102 96 96 98 97 96 92 84 78 86 76 64 65 73 76 66 71 65 70 66 61 52 48 37
145 142 179 178 170 nan nan nan nan nan nan nan 149 nan 127 119 108 102 94 45 293 279 281 290 315 335 347 352 350 344 340 337 325 321 317 305 311 321 324 321 329 348 353 1 15 54 105 113 104 102 111 123 136 131 143 141 141 140 145 144 146 144 131 132 130 126 123 114 101 90 91 101 101 97 93 100 95 94 92 86 85 79 73 69 66 46 35 43 38 50 51 60 70 73 63 44 40
nan nan nan nan nan nan nan nan nan nan nan nan nan nan nan nan 97 112 48 12 307 307 300 308 330 347 354 354 357 354 350 346 341 324 315 305 306 313 320 319 333 341 345 8 22 73 133 125 120 112 113 126 141 134 142 138 139 142 148 149 147 143 138 136 133 128 123 109 103 92 90 97 106 99 101 91 94 92 87 85 80 74 59 46 45 30 18 24 18 34 39 53 58 71 68 52 52
nan nan nan nan nan nan nan nan nan nan nan nan nan nan nan nan 71 87 24 343 330 326 321 323 342 356 0 357 357 357 357 349 339 339 338 325 297 303 314 304 330 332 339 10 59 117 138 120 128 118 119 141 137 132 144 140 137 143 150 148 147 147 141 135 134 130 123 118 105 87 92 90 93 106 103 96 95 89 90 84 75 61 53 33 25 21 12 356 13 12 17 44 52 49 47 50 56
nan nan nan nan nan nan nan nan nan nan nan nan nan nan nan nan 73 66 63 346 352 348 336 338 346 358 1 2 356 356 1 351 343 343 344 324 309 307 322 318 313 316 301 6 44 104 114 119 148 131 130 147 133 128 145 144 147 152 156 149 152 152 142 137 137 134 129 119 108 93 90 89 93 91 89 86 90 88 84 76 65 49 28 19 7 353 4 18 13 10 8 27 31 33 30 29 31
nan nan nan nan nan nan nan nan nan nan nan nan nan nan nan nan 65 105 19 15 9 358 353 350 350 355 5 6 1 357 359 356 353 348 344 335 330 334 354 347 335 320 301 292 63 109 142 162 160 165 149 149 131 146 153 152 153 160 162 160 160 149 146 142 140 142 139 132 110 91 90 87 87 89 90 86 92 85 64 55 53 38 17 7 357 3 16 11 25 31 30 27 27 32 13 10 25
nan nan nan nan nan nan nan nan nan nan nan nan nan nan nan nan 336 138 5 35 20 9 5 359 355 355 2 10 8 4 0 2 357 348 350 353 355 0 31 18 349 349 288 288 76 119 122 149 160 165 160 137 154 147 155 157 159 164 166 164 164 151 155 149 148 148 146 138 123 112 90 86 87 91 95 99 90 89 64 50 38 19 1 354 357 347 27 35 38 39 29 26 22 13 3 357 27
nan nan nan nan nan nan nan nan nan nan nan nan nan nan nan nan 238 239 2 56 37 27 14 6 0 358 0 7 10 9 4 359 358 353 353 357 12 19 32 26 356 10 347 242 168 141 134 142 160 147 142 132 161 162 164 159 158 160 165 166 167 156 162 155 157 158 153 146 137 136 90 90 94 94 94 95 91 68 55 39 24 4 341 352 344 342 23 34 35 38 19 22 2 355 358 359 4
nan nan nan nan nan nan nan nan nan nan nan nan nan nan nan nan 238 235 40 58 51 50 28 17 7 1 360 6 9 11 4 359 358 358 356 355 3 51 46 33 19 25 357 170 156 145 140 147 162 121 134 120 172 158 162 155 161 155 152 162 164 164 166 166 167 162 150 148 144 139 126 107 102 94 89 82 81 63 52 40 21 1 356 345 338 1 26 34 29 17 9 11 348 346 nan nan nan
nan nan nan nan nan nan nan nan nan nan nan nan nan nan nan nan 200 209 189 87 61 76 47 30 18 9 5 6 10 10 10 4 0 2 3 356 327 2 356 356 7 16 10 101 145 153 143 160 160 139 169 139 181 181 155 155 158 157 154 165 166 172 163 169 168 160 151 154 152 144 153 116 105 91 80 73 72 70 59 49 35 4 6 2 4 16 27 21 6 7 1 5 350 358 nan nan nan
nan nan nan nan nan nan nan nan nan nan nan nan nan nan nan nan 201 199 199 143 95 98 87 56 33 17 10 14 15 12 14 12 7 1 359 354 352 347 336 349 5 1 98 110 140 141 146 156 159 132 147 132 94 121 128 137 149 154 157 161 170 167 173 164 162 159 157 155 143 148 149 122 108 80 72 67 67 64 57 48 42 27 27 31 40 49 37 27 21 5 15 360 3 9 360 nan nan
nan nan nan nan nan nan nan nan nan nan nan nan nan nan nan nan nan 206 198 175 132 123 117 96 64 37 23 24 23 18 20 17 9 7 0 353 354 338 331 322 356 350 100 144 126 98 86 80 102 125 116 90 65 88 118 132 156 162 164 170 168 173 169 160 152 153 153 150 150 151 146 117 104 83 72 66 63 62 59 47 40 35 39 53 65 71 66 45 30 17 19 3 3 7 10 12 nan
nan nan nan nan nan nan nan nan nan nan nan nan nan nan nan nan nan 207 198 192 156 126 106 100 82 58 38 35 28 20 18 16 4 6 11 1 359 350 344 321 338 2 81 131 109 77 66 63 59 55 76 72 82 105 123 141 156 170 167 156 156 167 155 147 148 147 146 150 158 145 145 117 98 87 77 66 60 55 53 47 39 38 46 58 68 72 68 48 30 28 10 5 7 17 13 17 nan
nan nan nan nan nan nan nan nan nan nan nan nan nan nan nan nan nan nan 209 186 150 132 118 101 88 72 67 47 35 25 15 10 352 353 16 16 11 2 353 331 355 16 111 125 93 78 67 62 64 73 80 72 82 103 141 148 162 168 167 146 154 159 143 137 139 140 134 146 154 143 131 117 104 92 78 66 61 54 45 38 35 38 47 58 64 66 60 40 26 25 11 6 17 24 26 36 1
nan nan nan nan nan nan nan nan nan nan nan nan nan nan nan nan nan nan 210 186 176 170 150 143 141 119 108 80 55 32 13 8 357 354 360 19 18 13 1 358 77 73 111 113 94 77 67 76 89 80 89 83 101 112 158 169 173 152 133 140 129 155 145 144 140 144 144 140 151 126 115 111 106 92 71 61 60 50 42 35 32 34 44 54 55 52 43 32 22 21 18 23 18 18 32 25 25
nan nan nan nan nan nan nan nan nan nan nan nan nan nan nan nan nan nan 205 197 194 185 176 189 186 124 86 77 63 44 22 10 4 357 356 4 22 26 11 17 79 132 149 135 102 74 92 94 93 84 100 113 135 122 156 153 113 94 103 139 142 144 158 157 154 162 160 145 137 126 111 103 88 80 58 50 49 44 34 29 27 32 37 47 47 41 34 22 16 18 22 26 26 29 16 15 18
nan nan nan nan nan nan nan nan nan nan nan nan nan nan nan nan nan nan nan 214 206 203 203 201 183 148 129 117 90 60 33 20 13 4 359 352 2 30 21 18 122 142 148 149 131 128 155 92 96 96 127 119 150 156 66 113 97 91 118 141 157 153 166 170 176 171 164 155 135 119 99 79 69 66 50 37 38 31 23 19 26 29 33 33 34 30 24 19 16 25 26 32 27 28 15 357 5
nan nan nan nan nan nan nan nan nan nan nan nan nan nan nan nan nan nan nan 226 214 216 220 210 192 185 166 122 95 77 61 36 20 11 5 356 351 353 6 11 43 160 164 169 172 167 153 150 125 119 140 144 136 85 55 110 120 117 130 151 159 165 178 184 176 163 144 122 103 103 88 66 48 43 39 27 24 20 11 9 18 28 27 26 25 25 17 14 19 38 21 32 20 17 19 356 357
nan nan nan nan nan nan nan nan nan nan nan nan nan nan nan nan nan nan nan 230 219 222 221 209 208 202 174 138 126 103 79 59 45 30 12 360 347 342 349 1 12 193 195 202 198 195 182 172 149 144 151 148 128 117 61 119 143 144 149 181 180 188 192 183 157 135 123 116 114 100 91 59 38 31 25 20 17 13 7 1 9 22 25 22 18 19 17 20 17 23 17 19 13 2 356 2 0
nan nan nan nan nan nan nan nan nan nan nan nan nan nan nan nan nan nan nan 223 220 225 223 209 208 190 138 127 121 109 96 79 61 42 26 8 353 345 343 334 281 220 223 218 205 204 202 184 181 156 156 141 139 124 82 141 164 151 184 188 188 190 187 167 125 136 136 141 137 106 89 63 29 26 26 18 18 11 5 1 4 13 18 22 13 16 21 19 9 5 5 4 0 357 359 359 0
nan nan nan nan nan nan nan nan nan nan nan nan nan nan nan nan nan nan nan nan 222 226 222 211 195 176 143 126 123 105 100 91 79 64 41 21 0 347 318 301 280 254 236 228 215 208 208 199 195 163 134 142 137 106 116 141 155 172 194 192 186 184 162 149 159 158 161 169 167 144 92 39 24 17 21 21 16 15 7 6 3 8 12 18 9 13 15 9 5 355 354 355 355 355 358 357 360
nan nan nan nan nan nan nan nan nan nan nan nan nan nan nan nan nan nan nan nan nan 217 216 207 192 177 164 146 119 109 154 133 107 84 65 40 11 349 329 297 283 271 241 233 223 215 213 208 193 123 116 141 132 123 160 152 130 175 191 186 180 180 162 159 167 182 188 205 203 220 257 352 7 5 9 17 15 15 11 6 6 6 10 12 2 10 7 356 350 350 351 355 354 355 354 358 1
nan nan nan nan nan nan nan nan nan nan nan nan nan nan nan nan nan nan nan nan nan nan nan 203 197 183 167 148 132 140 205 40 124 106 93 67 32 359 326 323 317 289 241 252 239 225 215 208 207 102 109 148 137 156 168 143 133 172 182 184 165 154 154 169 184 196 207 218 221 247 289 327 346 358 2 1 11 12 10 8 10 5 360 355 349 354 358 353 343 344 348 354 353 354 354 0 4
nan nan nan nan nan nan nan nan nan nan nan nan nan nan nan nan nan nan nan nan nan nan nan nan 199 187 181 171 164 146 120 224 218 149 126 107 79 25 343 332 313 308 277 279 266 250 229 206 219 330 124 150 176 184 179 143 155 170 171 173 164 157 167 186 199 211 224 232 242 255 270 277 300 325 343 356 1 8 5 5 7 3 351 342 341 338 344 345 337 336 340 349 353 355 357 360 0
nan nan nan nan nan nan nan nan nan nan nan nan nan nan nan nan nan nan nan nan nan nan nan nan 198 187 192 181 173 170 154 185 247 245 210 186 91 24 351 322 302 304 285 288 277 265 247 229 252 273 235 217 206 210 200 177 171 172 176 176 175 176 174 193 213 222 231 233 239 251 263 265 273 299 327 353 2 3 359 359 360 354 343 335 331 331 335 339 336 336 339 351 354 354 357 355 354
nan nan nan nan nan nan nan nan nan nan nan nan nan nan nan nan nan nan nan nan nan nan nan nan nan 191 193 186 191 185 177 180 200 239 238 216 190 140 315 303 299 281 292 277 266 247 238 231 247 253 243 236 220 218 220 206 187 188 189 190 189 190 187 202 218 229 238 238 246 255 266 272 280 309 326 346 356 357 357 355 354 352 344 333 325 329 334 333 336 336 340 353 355 354 353 353 354
nan nan nan nan nan nan nan nan nan nan nan nan nan nan nan nan nan nan nan nan nan nan nan nan nan nan 192 190 198 193 193 196 209 230 245 262 255 264 252 270 271 271 284 276 256 247 245 244 251 262 255 253 245 234 224 222 209 206 207 205 204 200 201 210 222 231 242 251 253 260 260 267 278 292 318 332 343 346 350 350 352 350 344 335 325 326 328 330 335 339 341 352 356 352 351 351 354
nan nan nan nan nan nan nan nan nan nan nan nan nan nan nan nan nan nan nan nan nan nan nan nan nan nan nan 202 204 202 202 209 217 234 263 300 288 268 242 245 257 262 279 268 278 265 262 257 260 266 265 260 252 245 232 228 220 216 219 222 217 215 213 218 226 234 241 251 257 259 261 265 271 283 301 316 326 331 337 345 344 345 341 335 328 325 327 325 333 340 339 347 358 348 349 354 356
nan nan nan nan nan nan nan nan nan nan nan nan nan nan nan nan nan nan nan nan nan nan nan nan nan nan nan 207 208 207 209 215 226 238 246 295 286 283 270 260 246 259 268 281 288 284 283 271 266 269 265 260 264 260 251 238 234 233 243 241 235 232 235 240 240 250 258 258 260 262 261 268 276 280 285 294 304 314 326 336 339 341 337 332 327 321 322 329 332 334 335 346 354 352 348 354 355
nan nan nan nan nan nan nan nan nan nan nan nan nan nan nan nan nan nan nan nan nan nan nan nan nan nan nan 211 207 209 212 221 249 276 265 279 300 314 305 281 272 269 282 287 291 285 279 279 281 280 275 279 274 269 266 255 258 256 252 259 258 254 247 251 249 254 258 261 265 262 263 262 270 277 283 283 292 308 318 329 332 335 333 328 324 320 319 329 332 327 329 338 345 347 348 349 352
nan nan nan nan nan nan nan nan nan nan nan nan nan nan nan nan nan nan nan nan nan nan nan nan nan nan nan 214 208 208 209 211 218 235 249 267 296 321 323 323 317 299 279 276 278 279 278 281 283 289 294 295 288 270 270 262 267 253 252 266 278 269 258 255 258 261 264 270 276 273 275 272 270 275 281 287 289 299 309 317 324 330 329 324 317 314 311 318 329 323 318 332 341 346 346 347 347
nan nan nan nan nan nan nan nan nan nan nan nan nan nan nan nan nan nan nan nan nan nan nan nan nan nan nan nan 211 214 214 214 219 232 254 286 319 343 347 338 327 313 299 281 278 268 288 287 286 288 287 281 282 284 284 287 289 279 278 280 285 282 279 271 270 274 275 281 282 281 282 283 280 278 285 294 294 298 305 315 319 327 329 324 315 309 309 315 324 317 308 317 334 344 347 349 348
nan nan nan nan nan nan nan nan nan nan nan nan nan nan nan nan nan nan nan nan nan nan nan nan nan nan nan nan nan 215 222 218 216 224 239 277 309 338 342 334 319 299 281 273 268 272 268 266 280 292 289 293 299 298 294 288 284 290 294 299 298 296 300 288 288 289 289 286 282 284 283 282 282 285 287 294 298 298 300 309 318 320 327 321 311 303 299 303 313 310 302 310 322 337 348 349 352
nan nan nan nan nan nan nan nan nan nan nan nan nan nan nan nan nan nan nan nan nan nan nan nan nan nan nan nan nan nan 219 220 219 216 220 232 268 324 328 309 294 289 284 282 273 267 266 264 263 272 279 284 299 296 292 289 288 289 303 301 303 298 298 295 300 299 299 294 290 290 289 288 293 293 291 295 298 294 295 305 313 316 318 318 308 301 300 298 304 305 304 297 311 333 347 356 359